EW3775 Weather Reports


Display with metric or nautical units.
time (UTC)temp
F
wind
direction
speed
MPH
gust
MPH
rain 1hr
in
rain 24hr
in
rain mn
in
humidity
%
barometer
mb
20180221013415 42 348 2.0 3.0 0.00 0.07 0.01 94 1022.9
20180221011918 43 348 1.0 3.0 0.00 0.07 0.01 95 1022.8
20180221010424 43 348 2.0 3.0 0.00 0.07 0.01 95 1022.7
20180221004926 43 359 2.0 3.0 0.00 0.12 0.01 94 1022.9
20180221003412 43 9 2.0 3.0 0.00 0.12 0.01 95 1023.0
20180221001915 43 349 2.0 3.0 0.00 0.12 0.01 94 1022.8
20180221000418 43 349 2.0 3.0 0.00 0.12 0.01 94 1023.1
20180220234923 43 343 2.0 3.0 0.00 0.17 0.01 93 1022.9
20180220233426 44 354 2.0 4.0 0.00 0.17 0.01 93 1022.7
20180220231912 44 347 2.0 3.0 0.00 0.17 0.01 91 1022.5
20180220230416 45 359 2.0 3.0 0.00 0.17 0.01 90 1022.4
20180220224919 46 349 2.0 3.0 0.00 0.19 0.01 88 1022.4
20180220223427 48 10 1.0 3.0 0.00 0.19 0.01 83 1022.2
20180220221928 52 338 1.0 3.0 0.00 0.19 0.01 84 1022.1
20180220220411 55 359 1.0 3.0 0.00 0.19 0.01 78 1022.0
20180220214913 59 337 1.0 4.0 0.00 0.24 0.01 76 1021.9
20180220213417 61 217 1.0 6.0 0.00 0.24 0.01 72 1021.8
20180220211921 62 285 2.0 6.0 0.00 0.24 0.01 76 1021.6
20180220210420 62 220 2.0 7.0 0.00 0.24 0.01 76 1021.5
20180220204921 62 186 3.0 9.0 0.00 0.31 0.01 76 1021.7
20180220203427 61 282 5.0 10.0 0.00 0.31 0.01 76 1021.5
20180220201929 62 229 4.0 9.0 0.00 0.31 0.01 75 1021.6
20180220200417 62 252 3.0 8.0 0.00 0.31 0.01 75 1021.7
20180220194918 62 255 4.0 8.0 0.00 0.33 0.01 75 1021.5
20180220193418 62 187 4.0 11.0 0.00 0.33 0.01 74 1021.2
20180220191923 62 209 5.0 10.0 0.00 0.33 0.01 75 1021.2
20180220190426 61 267 3.0 8.0 0.00 0.33 0.01 75 1021.0
20180220184911 61 264 3.0 10.0 0.00 0.35 0.01 75 1021.1
20180220183415 60 240 3.0 9.0 0.00 0.35 0.01 76 1021.4
20180220181918 60 208 5.0 12.0 0.00 0.35 0.01 77 1021.5
20180220180423 58 193 4.0 11.0 0.00 0.35 0.01 79 1021.6
20180220174926 58 187 4.0 12.0 0.00 0.35 0.01 79 1021.4
20180220173415 58 191 3.0 8.0 0.00 0.35 0.01 79 1021.6
20180220171916 58 226 3.0 11.0 0.00 0.35 0.01 79 1021.8
20180220170420 58 185 5.0 8.0 0.00 0.35 0.01 79 1021.8
20180220164926 58 197 7.0 14.0 0.00 0.36 0.01 79 1021.9
20180220163428 57 222 6.0 12.0 0.00 0.36 0.01 80 1022.3
20180220161915 56 260 7.0 17.0 0.00 0.36 0.01 82 1022.3
20180220160415 55 253 4.0 12.0 0.00 0.36 0.01 83 1022.3
20180220154916 54 185 4.0 9.0 0.00 0.38 0.01 84 1022.2
20180220153421 54 206 3.0 9.0 0.00 0.38 0.01 86 1022.3
20180220151924 53 127 4.0 12.0 0.00 0.38 0.01 89 1022.4
20180220150411 52 191 4.0 9.0 0.00 0.38 0.01 92 1022.3
20180220144913 50 237 3.0 10.0 0.00 0.40 0.01 98 1022.5
20180220143415 48 235 1.0 6.0 0.00 0.40 0.01 98 1022.7
20180220141922 46 211 2.0 6.0 0.00 0.40 0.01 98 1022.6
20180220140423 44 350 0.0 0.0 0.00 0.40 0.01 98 1022.9
20180220134929 43 350 0.0 0.0 0.00 0.40 0.01 98 1022.9
20180220133414 42 350 0.0 0.0 0.00 0.40 0.01 98 1022.9
20180220131915 40 350 0.0 0.0 0.00 0.40 0.01 97 1022.7
20180220130423 39 350 0.0 0.0 0.00 0.40 0.01 97 1022.6
20180220124926 39 350 0.0 0.0 0.00 0.40 0.01 97 1022.7
20180220123429 38 350 0.0 0.0 0.00 0.40 0.01 97 1022.6
20180220121912 38 350 0.0 0.0 0.00 0.40 0.01 97 1022.6
20180220120416 38 350 0.0 0.0 0.00 0.40 0.01 97 1022.5
20180220114920 38 350 0.0 0.0 0.00 0.40 0.01 97 1022.4
20180220113426 38 350 0.0 0.0 0.00 0.40 0.01 97 1022.5
20180220111914 38 350 0.0 0.0 0.00 0.40 0.01 97 1022.1
20180220110418 39 350 0.0 1.0 0.00 0.40 0.01 97 1022.1
20180220104920 38 350 0.0 2.0 0.00 0.40 0.01 97 1022.2
20180220103428 38 350 1.0 3.0 0.00 0.40 0.01 97 1022.1
20180220101912 38 354 0.0 0.0 0.00 0.40 0.01 97 1022.0
20180220100421 38 354 0.0 0.0 0.00 0.40 0.01 97 1021.9
20180220094924 37 354 0.0 0.0 0.00 0.40 0.01 96 1021.7
20180220093411 38 354 0.0 0.0 0.00 0.40 0.01 97 1021.6
20180220091915 38 354 0.0 0.0 0.00 0.40 0.01 97 1021.4
20180220090419 38 354 0.0 0.0 0.00 0.40 0.01 97 1021.6
20180220084927 37 354 0.0 1.0 0.00 0.40 0.01 97 1021.5
20180220083411 37 354 0.0 2.0 0.00 0.40 0.01 97 1021.8
20180220081919 36 354 1.0 2.0 0.00 0.40 0.01 96 1021.7
20180220080423 36 354 0.0 2.0 0.00 0.40 0.01 96 1021.7
20180220074925 36 354 1.0 2.0 0.00 0.40 0.01 97 1021.7
20180220073413 36 354 1.0 2.0 0.00 0.40 0.01 96 1021.7
20180220071915 36 354 1.0 2.0 0.00 0.40 0.01 96 1021.9
20180220070423 36 354 1.0 2.0 0.01 0.40 0.01 96 1022.0
20180220064925 36 354 1.0 2.0 0.01 0.40 0.01 96 1021.9
20180220063411 38 354 0.0 1.0 0.01 0.40 0.01 96 1021.9
20180220061918 38 12 0.0 3.0 0.01 0.40 0.01 97 1021.9
20180220060419 36 327 1.0 2.0 0.00 0.39 0.00 96 1021.9
20180220054926 36 327 1.0 2.0 0.00 0.39 0.00 96 1021.8
20180220053429 36 299 0.0 1.0 0.00 0.39 0.00 96 1021.7
20180220051924 36 299 0.0 2.0 0.01 0.39 0.00 96 1021.8
20180220050413 36 354 0.0 2.0 0.01 0.39 0.00 96 1021.6
20180220044913 36 354 0.0 2.0 0.01 0.39 0.39 96 1021.7
20180220043420 37 359 0.0 0.0 0.01 0.39 0.39 96 1022.0
20180220041921 37 32 1.0 2.0 0.00 0.38 0.38 96 1022.2
20180220040427 37 32 1.0 2.0 0.00 0.38 0.38 96 1021.9
20180220034930 37 330 1.0 3.0 0.01 0.38 0.38 95 1021.8
20180220033414 37 330 0.0 0.0 0.01 0.38 0.38 95 1021.5
20180220031920 38 330 0.0 0.0 0.01 0.38 0.38 95 1021.8
20180220030420 39 330 1.0 2.0 0.01 0.38 0.38 95 1022.1
20180220024923 40 330 1.0 2.0 0.01 0.37 0.37 95 1022.3
20180220023431 41 211 1.0 4.0 0.01 0.37 0.37 96 1022.5
20180220021912 41 184 1.0 4.0 0.02 0.37 0.37 96 1022.4
20180220020419 41 158 4.0 7.0 0.03 0.37 0.37 96 1022.3
20180220014922 39 45 1.0 8.0 0.03 0.36 0.36 96 1022.2